www.pogodaiklimat.ru

Погода и климат >> Архив погоды >> Таиланд >> Ломсак


ПОГОДА в Ломсаке

  • Прогноз погоды в Ломсаке
  • Монитор погоды в Ломсаке

АРХИВ ПОГОДЫ в Ломсаке

Время (UTC), дата Ветер
(напр.,м/с)
 
Видим.   Явления Облачность Т
(С)
Тd
(С)
f
(%)
Тe
(С)
Тes
(С)
Комфортность P
(гПа)
Po
(гПа)
Тmin
(С)
Tmax
(С)
R
(мм)
R24
(мм)
S
(см)
03 12.03 штиль 0 6000 м мгла ясно +26.5 +15.5 51 +30 +48 душно 1014.0 997.5
06 12.03 штиль 0 6000 м мгла ясно +35.0 +15.2 31 +37 +62 опасность
солнечного
удара
1010.3 994.2
09 12.03 Ю 5 6000 м мгла ясно +37.6 +12.1 22 +37 +40 очень
жарко
1006.9 991.0
12 12.03 штиль 0 6000 м мгла ясно +31.8 +16.2 39 +35 +35 очень
душно
1007.9 991.7 +38.0
15 12.03 штиль 0 6000 м мгла ясно +25.7 +16.5 57 +29 +29 душно 1011.0 994.4
18 12.03 штиль 0 5000 м дымка ясно +22.1 +16.7 71 +26 +26 душно 1010.8 994.0
21 12.03 штиль 0 5000 м дымка ясно +20.1 +15.5 75 +22 +22 комфорт 1011.0 994.1
00 13.03 штиль 0 7000 м дымка ясно +18.8 +14.9 78 +20 +21 1013.7 996.7 +18.0
03 13.03 штиль 0 7000 м мгла ясно +28.0 +14.8 44 +30 +49 жарко 1014.4 997.9
06 13.03 штиль 0 3000 м мгла ясно +34.5 +14.2 30 +36 +62 опасность
солнечного
удара
1010.9 994.8
09 13.03 штиль 0 3000 м мгла ясно +36.5 +9.9 20 +35 +43 очень
жарко
1008.0 992.0
12 13.03 штиль 0 3000 м мгла ясно +31.5 +15.4 38 +34 +34 душно 1009.2 992.9 +37.5
15 13.03 штиль 0 5000 м мгла ясно +25.5 +15.6 54 +29 +29 душно 1012.3 995.7
18 13.03 штиль 0 5000 м дымка ясно +22.0 +16.2 70 +26 +26 душно 1011.6 994.8
21 13.03 штиль 0 5000 м дымка ясно +20.0 +14.9 72 +22 +22 комфорт 1012.3 995.4
00 14.03 штиль 0 4000 м дымка ясно +19.3 +15.0 76 +21 +22 комфорт 1014.3 997.3 +18.7
03 14.03 штиль 0 4000 м мгла ясно +27.4 +15.4 48 +30 +49 жарко 1015.2 998.7
06 14.03 ЮЗ 2 4000 м мгла ясно +35.0 +16.1 32 +37 +56 опасность
солнечного
удара
1011.7 995.6
09 14.03 Ю 2 5000 м мгла ясно +37.8 +9.4 18 +36 +42 очень
жарко
1008.1 992.2
12 14.03 штиль 0 4000 м мгла ясно +33.2 +15.8 35 +36 +36 очень
душно
1009.6 993.5 +38.1
15 14.03 штиль 0 4000 м мгла ясно +28.0 +18.3 56 +33 +33 очень
душно
1012.4 996.0
18 14.03 штиль 0 3000 м дымка ясно +24.6 +17.6 65 +29 +29 душно 1012.4 995.7
21 14.03 штиль 0 3000 м дымка ясно +22.3 +17.3 73 +27 +27 душно 1011.9 995.1
00 15.03 штиль 0 4000 м дымка ясно +21.0 +17.8 82 +25 +26 комфорт 1015.1 998.2 +20.2
03 15.03 штиль 0 4000 м мгла ясно +28.5 +18.4 54 +33 +52 опасность
солнечного
удара
1016.4 999.8
06 15.03 штиль 0 4000 м мгла ясно +35.0 +17.1 35 +38 +64 опасность
солнечного
удара
1012.1 996.0
09 15.03 штиль 0 4000 м мгла 6/4 600 м
[Sc Ac As Cs]
+38.0 +12.5 22 +38 +42 очень
жарко
1008.8 992.9
12 15.03 штиль 0 4000 м мгла 8/5 600 м
[Sc Ac As Cs]
+32.2 +17.9 43 +37 +37 очень
душно
1010.1 993.9 +38.8
15 15.03 штиль 0 3000 м мгла 6/4 600 м
[Sc Ac As Cs]
+28.0 +18.7 57 +33 +33 очень
душно
1012.8 996.4
18 15.03 штиль 0 3000 м мгла 6/4 600 м
[Sc Ac As Cs]
+27.5 +19.8 63 +33 +33 очень
душно
1011.9 995.4
21 15.03 штиль 0 3000 м мгла 5/3 600 м
[Sc Ac As Cs]
+26.5 +18.7 62 +31 +31 душно 1011.6 995.1
00 16.03 штиль 0 3000 м дымка ясно +25.8 +20.0 70 +32 +33 очень
душно
1013.7 997.1 +25.3
03 16.03 штиль 0 3000 м мгла ясно +31.5 +21.1 54 +39 +58 опасность
солнечного
удара
1015.3 999.0
06 16.03 штиль 0 3000 м мгла ясно +35.7 +20.9 42 +43 +69 опасность
перегрева
1012.4 996.4
09 16.03 штиль 0 5000 м мгла {гроза} 8/5 600 м
[Cb cap Ac lent Cs]
+33.2 +20.5 47 +40 +43 очень
душно
1010.3 994.1
12 16.03 штиль 0 4000 м мгла {гроза} 8/5 600 м
[Sc Ac lent Cs]
+31.0 +20.7 54 +38 +38 очень
душно
1011.3 995.0 +36.6
15 16.03 штиль 0 4000 м дымка ясно +27.8 +22.8 74 +37 +37 очень
душно
1013.4 996.9
18 16.03 штиль 0 4000 м дымка ясно +26.8 +22.4 77 +35 +35 очень
душно
1013.0 996.4
21 16.03 штиль 0 4000 м дымка ясно +24.5 +20.7 79 +30 +30 очень
душно
1012.5 995.8
00 17.03 штиль 0 5000 м дымка ясно +24.0 +20.9 83 +30 +31 очень
душно
1014.6 997.9 +23.3
03 17.03 штиль 0 5000 м мгла ясно +30.0 +21.9 62 +39 +57 опасность
солнечного
удара
1015.5 999.1
06 17.03 штиль 0 5000 м мгла ясно +35.5 +20.7 42 +42 +68 опасность
перегрева
1011.2 995.2
09 17.03 штиль 0 5000 м мгла 8/3 600 м
[Sc Ac lent Cs]
+34.5 +21.2 46 +42 +46 опасность
перегрева
1008.4 992.4
12 17.03 штиль 0 4000 м мгла {гроза} 8/3 600 м
[Sc Ac lent Cs]
+30.5 +17.1 45 +34 +34 очень
душно
1009.8 993.5 +37.7
15 17.03 штиль 0 4000 м дымка ясно +27.5 +21.5 70 +35 +35 очень
душно
1012.2 995.7
18 17.03 штиль 0 4000 м дымка ясно +26.2 +20.6 71 +33 +33 очень
душно
1011.3 994.8
21 17.03 штиль 0 4000 м дымка ясно +25.0 +21.2 79 +32 +32 очень
душно
1010.6 994.0
00 18.03 штиль 0 5000 м дымка ясно +24.3 +20.8 81 +30 +31 очень
душно
1012.8 996.2 +23.6
03 18.03 штиль 0 5000 м мгла ясно +31.0 +21.3 56 +39 +58 опасность
солнечного
удара
1014.0 997.7
06 18.03 штиль 0 5000 м мгла ясно +36.3 +20.8 41 +43 +70 опасность
перегрева
1009.9 994.0
09 18.03 СВ 2 5000 м мгла 8/3 600 м
[Sc Ac lent Cs]
+32.0 +18.1 44 +37 +39 очень
душно
1008.4 992.2
12 18.03 штиль 0 4000 м мгла ясно +30.3 +20.3 55 +37 +37 очень
душно
1009.0 992.7 +37.5
15 18.03 штиль 0 4000 м в посл. час гроза 5/3 600 м
[Sc Cs]
+26.4 +19.6 66 +32 +32 очень
душно
1010.7 994.1
18 18.03 штиль 0 3000 м дымка {гроза} ясно +24.3 +20.3 78 +30 +30 очень
душно
1011.7 995.1
21 18.03 штиль 0 3000 м дымка ясно +23.7 +20.1 80 +29 +29 душно 1010.4 993.7
00 19.03 штиль 0 5000 м дымка ясно +23.0 +20.2 84 +30 +31 очень
душно
1012.5 995.7 +22.5

 

Местоположение метеостанции Ломсак (Таиланд): широта 16.77 долгота 101.25 высота над уровнем моря 145 м.

В архиве по умолчанию представлена погода в Ломсаке за последнюю неделю. Архивные данные за месяц целиком и за предыдущие месяцы, начиная с января 2011 года, Вы можете получить, выбрав интересующий диапазон дат из раскрывающегося списка и нажав кнопку "Ввод!".


*Определитесь, кто Вы:
робот инопланетянин человек

Внимание! Время в таблицах - всемирное. Для получения местного времени необходимо прибавить поправку, которая равна 7 ч.

Смотрите также архив погоды в соседних городах и на ближайших метеорологических станциях:

Погода в Пхетчабуне (Таиланд) (39 км)
Погода в Лоей Агромете (Таиланд) (87 км)
Погода в Лоэй (Таиланд) (91 км)
Погода в Пхитсанулоке (Таиланд) (105 км)
Погода в Пичит Агромете (Таиланд) (110 км)
Погода в Вичан Бури (Таиланд) (128 км)
Погода в Нонгбуалампху (Таиланд) (136 км)
Погода в Чайяпхуме (Таиланд) (136 км)
Погода в Си Самронг Агромете (Таиланд) (153 км)
Погода в Уттарадите (Таиланд) (154 км)

Пояснения к столбцам:

Ветер - указаны скорость ветра в м/с - средняя за 10 мин, порывы в срок и между сроками (в фигурных скобках) и направление, откуда дует ветер: С - северный, СВ - северо-восточный, В - восточный, ЮВ - юго-восточный, Ю - южный, ЮЗ - юго-западный, З - западный, СЗ - северо-западный.
Видимость - горизонтальная дальность видимости в метрах или километрах. При видимости от 1 до 10 км при отсутствии осадков обычно наблюдается дымка, при ухудшении видимости до 1 км и менее - туман. В сухую погоду видимость может ухудшаться дымом, пылью или мглою.
Явления - указаны атмосферные явления, наблюдавшиеся в срок или в последний час перед сроком; фигурными скобками обозначены явления, наблюдавшиеся между сроками (за 1-3 часа до срока); квадратными скобками обозначены град или гололедные отложения с указанием их диаметра в мм.
Облачность - указаны через наклонную черту общая и нижняя облачность в баллах и высота нижней границы облаков в метрах; квадратными скобками обозначены формы облаков: Ci - перистые, Cs - перисто-слоистые, Cc - перисто-кучевые, Ac - высококучевые, As - высокослоистые, Sc - слоисто-кучевые, Ns - слоисто-дождевые, Cu - кучевые, Cb - кучево-дождевые. Подробнее классификацию облаков см. в Атласе облаков (PDF).
T - Температура воздуха - температура, измеренная на высоте 2 м над землей.
Td - Температура точки росы - температура, при понижении до которой содержащийся в воздухе водяной пар достигнет насыщения.
f - Относительная влажность воздуха - влажноcть воздуха, измеренная на высоте 2 м над землей.
Te - Эффективная температура - температура, которую ощущает одетый по сезону человек в тени. Характеристика душности погоды. При расчете учитывается влияние влажности воздуха и скорости ветра на теплоощущения человека.
Tes - Эффективная температура на солнце - температура, которую ощущает человек, с поправкой на солнечный нагрев. Характеристика знойности погоды. Зависит от высоты солнца над горизонтом, облачности и скорости ветра. Ночью, в пасмурную погоду, а также при ветре 12 м/с и более поправка равна нулю.
P - Атмосферное давление - приведенное к уровню моря атмосферное давление.
Po - Атмосферное давление - измеренное на уровне метеостанции атмосферное давление.
Tmin - Минимальная температура - минимум температуры воздуха на высоте 2 м над землей.
Tmax - Максимальная температура - максимум температуры воздуха на высоте 2 м над землей.
R - Количество осадков - Количество выпавших осадков за период времени, мм. При наведении курсора мыши на число - период времени, за который выпало указанное количество осадков.
R24 - Количество осадков - Количество выпавших осадков за 24 часа, мм.
S - Снежный покров - Высота снежного покрова, см. При наведении курсора мыши на число - состояние снежного покрова и степень покрытия местности в баллах.